Погода в Старолеушковской

Россия / Краснодарский край     45˚58′45″N   39˚45′26″E
темп.,
°C
ветер,
м/с
пор.,
м/с
влажн.,
%
обл.,
%
осадки,
мм/ч
давл.,
гПа
погр.,
м
17 января, вс
вс1700:00−5˚св368793 0.0 1016157
03:00−5˚всв6107996 0.0 1013334
06:00−5˚всв71278100 0.0 1011377
09:00−5˚всв91678100 0.0 1009562
12:00−4˚всв81495100 3.9 1007803
15:00−4˚всв101594100 9.4 1005814
18:00−4˚всв91694100 1.2 1005685
21:00−3˚всв81395100 2.1 1005629
18 января, пн
пн1800:00−4˚всв71195100 1.8 1005539
03:00−4˚св5896100 4.4 1007390
06:00−6˚с5895100 1.7 1009330
09:00−8˚сз4696100 1.9 1013232
12:00−7˚зсз469296 0.0 1015405
15:00−6˚зсз469097 0.1 1016514
18:00−9˚зюз2295100 0.0 101721
21:00−10˚зюз1295100 0.0 101821
19 января, вт
вт1900:00−10˚ююз2296100 0.0 101921
03:00−9˚ююз339693 0.1 101922
06:00−11˚юз339242 0.0 101828
09:00−8˚юз259671 0.1 1019163
12:00−5˚з3594100 0.5 1019441
15:00−5˚зсз3492100 0.6 1018476
18:00−10˚сз339098 0.1 102033
21:00−13˚сз129193 0.1 102121
20 января, ср
ср2000:00−13˚зсз1193100 0.0 102221
03:00−11˚сз0195100 0.1 102421
06:00−13˚ссз1195100 0.1 102420
09:00−13˚с119394 0.1 102620
12:00−9˚сз11870 0.0 1027224
15:00−8˚зсз12854 0.0 1027350
18:00−13˚з12913 0.0 102921
21:00−14˚сз11932 0.0 103020
21 января, чт
чт2100:00−15˚з01940 0.0 103120
03:00−15˚ю11930 0.0 103220
06:00−15˚юв22910 0.0 103220
09:00−13˚юв23910 0.0 103339
12:00−7˚вюв34900 0.0 1032154
15:00−4˚юв46890 0.0 1031222
18:00−4˚юв469696 0.1 1031178
21:00−4˚ююв488988 0.1 1031148